Location: Fulmer
(51.5500°N, 0.5500°W)
Time: 11:45:49
(UTC+00:00)

Daily predictions for brighter satellites

Satellite Brightness Start Highest point End
(mag) Time Altitude Azimuth Time Altitude Azimuth Time Altitude Azimuth
Centaur D AC-29 4.4 20:39:17 10° S 20:43:29 14° SE 20:51:16 10° ESE
Cosmos 1048 Rocket 4.5 20:44:44 10° SW 20:49:50 66° WNW 20:54:57 10° NNE
Cosmos 1975 4.0 20:46:28 10° N 20:49:54 27° ENE 20:53:17 10° SE
Cosmos 1992 Rocket 4.4 20:47:51 10° NNW 20:53:01 56° ENE 20:58:08 10° SE
Cosmos 1302 Rocket 4.1 20:52:18 10° NNW 20:57:32 78° WSW 21:02:43 10° SSE
MOS 1 Rocket 3.9 20:54:49 10° SSE 20:59:59 58° ENE 21:05:18 10° N
USA 281 3.7 20:54:57 10° SE 21:01:17 52° NE 21:07:39 10° NNW
NOSS 3-3 (A) 4.5 20:58:25 10° S 21:03:13 32° ESE 21:08:39 10° NE
Cosmos 1536 3.6 21:01:00 10° NNW 21:04:48 51° W 21:08:37 10° S
Meteor 1-19 Rocket 4.3 21:00:55 10° S 21:06:42 70° E 21:12:19 10° NNE
NOSS 2-1 (C) 3.9 21:03:22 10° NW 21:07:04 55° SW 21:12:07 10° SSE
Cosmos 1340 2.4 21:05:19 10° NNW 21:08:43 83° W 21:12:07 10° S
Cosmos 1943 4.2 21:04:01 10° SW 21:09:33 53° NW 21:15:07 10° NNE
Landsat 4 3.5 21:09:52 10° SSE 21:13:21 86° WSW 21:16:52 10° NNW
Meteor 2-10 4.4 21:09:30 10° NNW 21:14:58 69° W 21:20:11 10° S
Cosmos 1500 Rocket 4.0 21:12:03 10° NNW 21:16:18 58° W 21:20:31 10° S
Okean-O 4.3 21:12:35 10° SSW 21:16:27 30° W 21:20:20 10° NNW
USA 245 2.9 21:14:36 10° S 21:16:54 51° W 21:19:34 10° NNW
NOSS 3-4 (A) 4.4 21:11:06 10° NW 21:17:29 53° NE 21:24:52 10° ESE
NOSS 3-4 (C) 4.4 21:11:12 10° NW 21:17:35 53° NE 21:24:57 10° ESE
Nadezhda 4 Rocket 4.0 21:11:33 10° S 21:17:43 72° E 21:24:00 10° NNE
Spot 2 Rocket 3.5 21:13:01 10° SSE 21:18:04 86° WSW 21:23:10 10° NNW
MetOp-A 4.4 21:14:04 10° SE 21:18:39 51° ENE 21:23:36 10° N
Cosmos 1626 3.2 21:17:57 12° SE 21:20:11 23° E 21:22:48 10° NE
Cosmos 1726 4.3 21:20:34 10° NW 21:22:44 17° W 21:24:52 10° SW
SPOT 5 3.9 21:19:09 10° SSW 21:23:16 37° W 21:27:18 10° NNW
Sich 1 3.6 21:19:34 10° NNW 21:23:54 58° W 21:28:10 10° S
Cosmos 1697 Rocket 3.4 21:20:22 10° NNW 21:25:49 47° NE 21:31:08 10° SE
BREEZE-M DEB (TANK) 3.8 21:16:14 10° SW 21:26:57 40° SSE 21:30:20 10° E
Cosmos 1805 Rocket 4.2 21:23:38 10° NNW 21:27:57 54° W 21:32:16 10° S
Cosmos 1733 3.9 21:26:20 10° NNW 21:29:42 45° W 21:33:03 10° SSW
Cosmos 1633 Rocket 3.4 21:26:52 10° N 21:31:13 52° ENE 21:34:53 14° SSE
Cosmos 1980 Rocket 3.5 21:30:39 10° NNW 21:35:48 33° NE 21:40:54 10° ESE
NOSS 3-3 (C) 4.0 21:31:27 10° SSW 21:36:39 49° ESE 21:42:48 10° NE
Cosmos 1666 Rocket 3.5 21:32:52 10° N 21:37:12 71° E 21:40:50 14° SSE
Lacrosse 5 rocket 2.3 21:34:34 10° WNW 21:38:43 47° NNE 21:42:42 10° E
SL-8 R/B 3.8 21:34:15 10° W 21:38:54 55° S 21:43:33 10° ESE
IRIDIUM 114 4.4 21:36:04 10° N 21:41:18 69° E 21:45:55 13° SSE
Ariane Rocket 3.5 21:36:26 10° S 21:41:26 59° WSW 21:46:29 10° NNW
Cosmos 44 Rocket 3.4 21:36:40 10° NW 21:41:40 74° NE 21:45:48 14° SE
Cosmos 1674 4.2 21:44:53 15° ESE 21:46:31 19° E 21:49:05 10° NE
USA 234 4.0 21:40:32 10° ENE 21:46:57 58° N 21:53:20 10° W
IRIDIUM 103 4.3 21:45:12 10° N 21:50:28 81° E 21:55:03 14° S
Meteor 2-4 Rocket 3.8 21:47:06 10° S 21:53:00 78° E 21:58:57 10° NNE
ERS-1 Rocket 4.3 21:49:18 10° SSW 21:53:53 35° W 21:58:30 10° NNW
Cosmos 1340 Rocket 4.0 21:50:28 10° SW 21:54:16 42° WNW 21:58:05 10° N
Lacrosse 4 Rocket 2.4 21:50:38 10° NW 21:54:25 36° WSW 21:57:32 14° S
Cosmos 2026 Rocket 4.0 21:49:51 10° S 21:56:07 75° E 22:02:18 10° NNE
SPOT 3 Rocket 4.2 21:51:21 10° S 21:56:19 49° W 22:01:20 10° NNW
Spot 1 3.9 21:52:33 10° NNE 21:56:42 82° ESE 22:01:00 10° SSW
Cosmos 614 Rocket 4.3 21:52:33 10° SSW 21:57:45 73° WNW 22:03:00 10° NNE
Cosmos 1818 3.5 21:54:47 10° SW 22:00:14 81° SE 22:05:46 10° NE
USA 59 Rocket 1.8 21:59:37 10° WNW 22:03:01 24° SW 22:06:48 12° S
Cosmos 1805 4.3 22:00:29 10° NNW 22:03:56 37° W 22:07:13 11° SSW
H-2A R/B 3.7 22:01:54 14° ESE 22:04:55 32° ENE 22:08:44 10° N
Cosmos 1607 4.4 21:59:06 10° S 22:05:07 43° ESE 22:11:12 10° NE
Cosmos 1766 3.1 22:03:22 10° N 22:07:09 78° ENE 22:09:34 21° SSE
Terra 3.4 22:03:53 10° SSW 22:07:58 29° W 22:12:05 10° NNW
IRIDIUM 106 4.5 22:03:32 10° N 22:08:46 74° W 22:13:18 14° S
Cosmos 1833 Rocket 2.8 22:07:46 11° S 22:12:55 55° ESE 22:18:25 10° NE
Cosmos 1656 4.5 22:09:12 10° NW 22:14:18 41° WSW 22:18:33 15° S
SL-16 R/B 4.2 22:10:57 10° NNW 22:15:21 22° NE 22:19:43 10° E
ALOS 2 4.2 22:12:16 12° ESE 22:15:29 24° ENE 22:19:03 10° N
Cosmos 1269 Rocket 4.0 22:13:58 10° SSW 22:19:15 87° WNW 22:24:34 10° NNE
Cosmos 1470 2.9 22:17:59 10° N 22:21:38 54° ENE 22:23:37 24° SE
Landsat 5 3.8 22:19:45 10° N 22:23:29 56° WNW 22:27:14 10° SSW
Cosmos 1975 4.3 22:22:17 10° NNW 22:25:46 30° W 22:28:58 11° SSW
Cosmos 2082 Rocket 3.5 22:23:57 18° SE 22:26:28 24° ESE 22:30:55 10° NE
Cosmos 2251 Rocket 4.3 22:24:49 20° SSE 22:27:37 34° ESE 22:32:22 10° NE
Cosmos 1553 Rocket 3.9 22:24:38 10° N 22:30:44 88° W 22:35:15 19° S
Cosmos 1908 3.3 22:34:03 10° N 22:37:35 55° ENE 22:39:14 28° SE
GEOS 3 Rocket 3.7 22:32:34 10° NE 22:37:41 57° SE 22:42:27 11° SSW
Cosmos 724 4.4 22:34:34 12° SSW 22:39:53 57° ESE 22:45:36 10° NE
ARIANE 5 R/B 2.6 22:40:25 24° S 22:42:58 77° WSW 22:47:18 10° NNW
USA 281 3.9 22:41:02 16° S 22:45:55 43° WSW 22:52:10 10° NW
H-2A R/B 4.2 22:45:41 10° NE 22:48:03 14° E 22:49:42 12° ESE
CZ-2C R/B 3.6 22:46:21 10° NNE 22:50:51 90° ESE 22:53:46 21° SSW
Cosmos 1023 Rocket 4.4 22:48:17 16° SSW 22:52:30 85° ESE 22:57:44 10° NNE
Cosmos 2285 Rocket 4.0 22:48:47 18° S 22:53:31 68° ESE 22:59:51 10° NNE
NOSS 3-3 (A) 4.3 22:47:58 10° WSW 22:53:36 66° NW 23:00:15 10° NE
Cosmos 1626 3.8 22:50:56 10° SW 22:53:38 24° WNW 22:56:20 10° NNW
Cosmos 1515 Rocket 3.7 22:54:04 20° SSW 22:57:00 68° WNW 23:01:20 10° N
Meteor 1-22 Rocket 4.3 22:52:24 10° N 22:57:45 66° ENE 23:01:09 23° SSE
Cosmos 1140 Rocket 3.5 22:54:17 16° SSW 22:58:26 89° ESE 23:03:41 10° NNE
Cosmos 1733 Rocket 4.2 22:56:44 10° N 23:00:44 34° ENE 23:03:12 19° SE
Spot 4 3.8 22:58:19 26° SSE 23:01:04 81° ENE 23:05:52 10° NNW
BREEZE-M DEB (TANK) 4.3 22:56:20 10° SW 23:01:06 57° SE 23:20:42 10° ENE
Cosmos 1707 2.5 23:00:27 29° SSW 23:02:10 86° W 23:05:50 10° N
Spot 2 4.5 23:01:25 25° SSE 23:04:16 73° ENE 23:09:18 10° NNW
Cosmos 1400 Rocket 3.9 23:02:59 24° SE 23:04:22 31° E 23:07:54 10° NNE
PSLV R/B 3.9 23:00:26 10° NNE 23:04:30 83° WNW 23:06:48 25° SSW
Cosmos 1300 3.6 23:01:49 10° N 23:05:08 34° ENE 23:06:40 23° ESE
Cosmos 2266 Rocket 4.0 23:02:10 22° S 23:06:17 74° E 23:12:36 10° NNE
Cosmos 1869 Rocket 3.5 23:03:23 10° NNW 23:07:47 86° W 23:10:01 29° S
NOSS 3-4 (A) 4.1 23:01:57 10° NW 23:08:36 57° SW 23:13:38 22° SSE
NOSS 3-4 (C) 4.1 23:02:03 10° NW 23:08:42 57° SW 23:13:46 22° SSE
Cosmos 1697 Rocket 3.6 23:04:33 10° NW 23:09:42 38° WSW 23:12:51 21° SSW
Cosmos 2322 Rocket 3.8 23:05:32 10° NNW 23:10:29 30° NE 23:15:26 10° ESE
Cosmos 1441 Rocket 2.9 23:07:08 10° NNW 23:10:44 82° W 23:12:05 36° S
Meteor 1-15 Rocket 4.2 23:07:53 10° NNW 23:13:34 86° E 23:16:53 25° SSE
OPS 6432 4.1 23:10:45 10° NW 23:13:51 64° SW 23:14:38 44° SSE
In-Cosmos 22 4.2 23:12:55 24° S 23:16:28 75° E 23:22:10 10° NNE
Lacrosse 5 rocket 1.3 23:13:03 10° WNW 23:17:13 63° SW 23:19:04 30° SE
Cosmos 1980 Rocket 2.4 23:14:32 10° NW 23:20:10 61° WSW 23:23:22 26° S
Cosmos 1674 3.8 23:18:27 17° SW 23:20:36 34° WNW 23:23:50 10° N
Cosmos 2228 Rocket 3.7 23:19:15 27° SSE 23:21:14 44° E 23:25:34 10° NNE
Cosmos 1842 4.1 23:19:04 19° SW 23:21:17 40° WNW 23:24:47 10° N
Cosmos 2333 Rocket 3.9 23:21:02 10° NNW 23:26:01 29° NE 23:30:59 10° ESE
Cosmos 540 Rocket 3.4 23:22:23 10° NNW 23:27:36 85° WSW 23:30:29 27° SSE
Cosmos 1356 Rocket 4.4 23:27:09 25° SE 23:28:40 34° E 23:32:27 10° NNE
USA 234 3.8 23:23:07 10° E 23:29:34 62° NNE 23:36:00 10° WNW
Cosmos 1953 4.1 23:26:39 10° NNE 23:29:49 23° ENE 23:32:08 14° ESE
Cosmos 1763 Rocket 3.7 23:24:46 10° NNW 23:30:02 63° WSW 23:32:48 27° S
Cosmos 1655 Rocket 4.1 23:26:16 24° S 23:30:18 78° E 23:36:44 10° NNE
BREEZE-M DEB (TANK) 3.3 23:30:15 10° W 23:37:31 - SE 23:31:44 29° SW
Cosmos 468 Rocket 4.0 23:27:31 10° NNW 23:32:50 84° WSW 23:35:47 27° SSE
GP-B 3.2 23:31:52 10° N 23:36:16 65° E 23:38:18 31° SSE
SL-14 R/B 3.4 23:36:11 35° SSE 23:37:32 57° E 23:41:18 10° NNE
H-2A R/B 3.6 23:37:53 23° SW 23:39:48 34° W 23:43:45 10° NNW
Cosmos 407 Rocket 3.8 23:36:25 17° SW 23:40:32 64° WNW 23:45:45 10° NNE
Cosmos 1455 3.9 23:38:35 10° NNE 23:41:23 22° ENE 23:43:13 15° ESE
CZ-3 Stage 3 4.5 23:27:55 10° WSW 23:41:46 22° SSW 23:43:39 21° S
Cosmos 1862 Rocket 3.9 23:42:08 30° SSE 23:43:57 53° E 23:48:13 10° NNE
Aureole 3 3.5 23:44:34 33° ESE 23:45:11 37° E 23:48:17 10° NNE
RESURS DK-1 4.3 23:43:04 10° NNW 23:46:33 26° NE 23:50:01 10° ESE
Cosmos 676 Rocket 4.2 23:44:45 28° S 23:47:27 58° ESE 23:52:41 10° NNE
Cosmos 2369 4.1 23:42:21 10° NW 23:47:52 50° WSW 23:50:47 26° S
Cosmos 1954 Rocket 4.0 23:45:26 27° S 23:48:19 70° ESE 23:53:37 10° NNE
ALOS 2 3.1 23:49:40 28° SSW 23:51:35 48° W 23:55:52 10° NNW
Cosmos 1190 Rocket 4.0 23:51:06 23° SSW 23:54:26 83° WNW 23:59:47 10° NNE
Cosmos 1758 3.5 23:52:03 10° NNW 23:55:51 58° W 23:57:14 35° SSW
